Location: Berlin
(38.3226°N, 75.2177°W)
Time: 10:50:17
(UTC+00:00)

Cosmos 1400 Rocket - Pass Details

Date: 26 October 2020
Orbit: 521 x 568 km, 81.2° (Epoch: 29 November)

Event Time Altitude Azimuth Distance (km) Brightness Sun altitude
Rises 09:51:26 0° 358° (N) 2,700 6.3 -18.2°
Reaches altitude 10° 09:53:43 10° 6° (N) 1,796 5.5 -17.8°
Maximum altitude 09:57:27 40° 77° (ENE) 786 4.1 -17.0°
Drops below altitude 10° 10:01:07 10° 149° (SSE) 1,761 5.9 -16.3°
Sets 10:03:19 0° 156° (SSE) 2,640 6.7 -15.9°
